This is the latest recevied weather packets stored in our database for station/object LIPZ. If no packets are shown the sender has not sent any weather packets the latest 1 day(s).
| Time | Temp. | Humidity | Pressure | Rain* | Wind** | Luminosity | Snow |
|---|---|---|---|---|---|---|---|
| 1777975205 | 17.22° C | 72% | 1014 hPa | - | 0.89 m/s, 0° | - | - |
| 1777973405 | 17.22° C | 67% | 1014 hPa | - | 1.34 m/s, 350° | - | - |
| 1777972503 | 17.22° C | 72% | 1014 hPa | - | 2.24 m/s, 250° | - | - |
| 1777968905 | 17.78° C | 63% | 1014 hPa | - | 3.13 m/s, 210° | - | - |
| 1777967104 | 17.22° C | 72% | 1014 hPa | - | 2.24 m/s, 190° | - | - |
| 1777966204 | 17.22° C | 72% | 1014 hPa | - | 2.24 m/s, 190° | - | - |
| 1777961704 | 15° C | 93% | 1013 hPa | - | 3.58 m/s, 60° | - | - |
| 1777959904 | 13.89° C | 100% | 1013 hPa | - | 3.58 m/s, 50° | - | - |
| 1777958104 | 13.89° C | 100% | 1013 hPa | - | 3.58 m/s, 50° | - | - |
| 1777957204 | 13.89° C | 100% | 1013 hPa | - | 3.58 m/s, 50° | - | - |
| 1777956303 | 15° C | 93% | 1013 hPa | - | 3.58 m/s, 40° | - | - |
| 1777955404 | 15° C | 93% | 1013 hPa | - | 3.58 m/s, 40° | - | - |
| 1777953605 | 15° C | 93% | 1013 hPa | - | 3.58 m/s, 20° | - | - |
| 1777952704 | 17.22° C | 93% | 1013 hPa | - | 2.68 m/s, 80° | - | - |
| 1777950004 | 17.22° C | 93% | 1013 hPa | - | 3.58 m/s, 100° | - | - |
| 1777949103 | 17.22° C | 93% | 1014 hPa | - | 3.58 m/s, 110° | - | - |
| 1777948205 | 17.22° C | 93% | 1014 hPa | - | 3.58 m/s, 110° | - | - |
| 1777946403 | 17.22° C | 93% | 1014 hPa | - | 3.58 m/s, 110° | - | - |
| 1777943704 | 16.11° C | 100% | 1015 hPa | - | 2.68 m/s, 80° | - | - |
| 1777942805 | 16.11° C | 100% | 1015 hPa | - | 2.68 m/s, 80° | - | - |
| 1777941904 | 13.89° C | 93% | 1015 hPa | - | 2.68 m/s, 50° | - | - |
| 1777941004 | 13.89° C | 93% | 1015 hPa | - | 2.68 m/s, 50° | - | - |
| 1777939204 | 13.89° C | 93% | 1015 hPa | - | 3.13 m/s, 30° | - | - |
| 1777938304 | 13.89° C | 93% | 1016 hPa | - | 3.13 m/s, 50° | - | - |
| 1777937404 | 13.89° C | 93% | 1016 hPa | - | 3.13 m/s, 50° | - | - |
* Rain since midnight (hover to see other rain measurements)
** Current wind speed in m/s (hover to see current wind gust speed)